Погода Бирилюссы

Погода Бирилюссы : погода сейчас, прогноз погоды и архив. Всё, что Вы хотите узнать о погоде Бирилюссы!

Поиск расширенной информации на нашем сайте:

Другие новости

Новости СМИ2

Главная страница сайта

Новости сайта

03.07.2017

Напоминаем, что на нашем специализированном сайте Метеоцентр.Азия вы можете получить высокодетализированные автоматические прогнозы погоды по пунктам России, СНГ и мира в авиационном формате (включающие направление и скорость ветра, видимость, явления погоды, количество и форму облачности, нижнюю и верхнюю границу облачности).


Погода Бирилюссы - сегодня

Время (UTC), дата Ветер
(°,м/с) 
Видим.   Явления Облачность Т
(°С)
Тd
(°С)
f(%) Тe
(°С)
Pmin
(гПа)
dP
(гПа)
Po
(мм)
O2
(г/м3)
Тmin Tmax R s Состояние
почвы
12 09.12.17 080 (В) 2-4  н/о    н/о 
-12.1 -13.2 91 -14  1031.4  -1.1  756  320    -9.2       
15 09.12.17 тихо ()   н/о    н/о 
-14.4 -15.1 94 -14  1030.9  -0.7  755  323           
18 09.12.17 тихо ()   н/о    н/о 
-17.7 -18.7 92 -18  1030.3  -0.9  754  327           
21 09.12.17 тихо ()   н/о    н/о 
-18.6 -19.9 89 -19  1029.9  -0.5  754  328           
00 10.12.17 тихо () -0  н/о    н/о 
-16.3 -16.9 95 -16  1029.5  0.1  754  324  -19.2      24  равномерный
сухой снег
100% 
03 10.12.17 090 (В) н/о    н/о 
-12.8 -13.8 92 -16  1028.9  -0.3  754  320           
06 10.12.17 110 (В) н/о    н/о 
-9.9 -11.7 87 -12  1028.7  0.1  754  316           
09 10.12.17 090 (В) н/о    н/о 
-10.1 -11.5 89 -10  1028.4  -0.3  753  316           
12 10.12.17 080 (В) 3-5  н/о    н/о 
-12.1 -13.1 92 -15  1027.4  -1.1  753  319    -8.9       
15 10.12.17 090 (В) н/о    н/о 
-14.2 -15.4 91 -14  1028.5  0.8  753  321           
18 10.12.17 100 (В) н/о    н/о 
-16 -17.1 91 -16  1028.5  -0.1  753  324           
21 10.12.17 120 (ЮВ) н/о    н/о 
-18.2 -19.1 93 -18  1029.4  0.6  754  327           
00 11.12.17 150 (ЮВ) 1-1  н/о    н/о 
-17.6 -19 89 -18  1030.1  0.8  754  326  -19.7      24  равномерный
сухой снег
100% 
03 11.12.17 170 (Ю) н/о    н/о 
-14.3 -15.3 92 -14  1030.5  0.7  755  322           
06 11.12.17 170 (Ю) н/о    н/о 
-9.8 -10.6 94 -10  1030.4  0.3  755  317           
09 11.12.17 210 (ЮЗ) н/о    н/о 
-8.2 -8.8 95 -8  1030.6  0.4  755  315           
12 11.12.17 тихо () -0  н/о    н/о 
-8.5 -9 96 -9  1030.7  0.1  755  315    -8.1  0.5     
15 11.12.17 тихо ()   н/о    н/о 
-8.8 -9.2 97 -9  1030  -0.7  755  315           
18 11.12.17 тихо ()   н/о    н/о 
-10.5 -10.9 97 -11  1029.8  -0.3  755  317           
21 11.12.17 тихо ()   н/о    н/о 
-10.8 -11.3 96 -11  1029.1  -0.7  754  317           
00 12.12.17 тихо () -0  н/о    н/о 
-10.6 -11.2 95 -11  1028.7  -0.3  754  317  -11.1      24  равномерный
сухой снег
100% 
03 12.12.17 тихо ()   н/о    н/о 
-10.5 -11 96 -11  1028.8  0.1  754  317           
06 12.12.17 250 (З) н/о    н/о 
-9.8 -10.7 93 -10  1028.9  0.1  754  316           
09 12.12.17 250 (З) н/о    н/о 
-9.4 -10.1 95 -9  1028.9  0.1  754  316           
12 12.12.17 тихо () -0  н/о    н/о 
-12.3 -12.8 96 -12  1030.2  755  320    -9.3       
Время (UTC), дата Ветер
(°,м/с) 
Видим.   Явления Облачность Т
(°С)
Тd
(°С)
f(%) Тe
(°С)
Pmin
(гПа)
dP
(гПа)
Po
(мм)
O2
(г/м3)
Тmin Tmax R s Состояние
почвы

Для получения пояснительной информации подведите курсор к названию столбца.

ПОГОДА Бирилюссы - архив

Всё, что Вы хотите узнать о погоде Бирилюссы - удобно и подробно!

Выберите нужную дату (начиная с 1 января 2015* года) и нажмите кнопку "Найти".
Будут отображены архивные сводки погоды по пункту Бирилюссы, начиная с указанной даты.


Отображать данные в формате CSV (для использования в таблицах Excel)


Внимание! Наш архив погоды предназначен исключительно для личного некоммерческого использования в познавательных целях. Если Вам необходимы официальные справки о состоянии погоды (для производственных, юридических, коммерческих и т.п. целей), обращайтесь в органы Росгидромета.

*Примечание: данная дата относится к архиву по метеостанциям СССР (Россия, СНГ, Балтия).
Архив по метеостанциям Зарубежной Европы и Азии (кроме Китая) хранится 10 дней, по другим регионам земного шара (Китай, Африка, Америка, Австралия, Океания) - 1 день.

Бирилюссы - район местоположения метеостанции


Название, широта, долгота, высота метеостанции:
Бирилюссы 57.1°ш. 90.7°д. 182 м над ур. моря [Российская Федерация]

Дополнительная информация

В oтличие oт бoльшинства пoгoдных сайтoв мы публикуем пoдрoбную метеoинфoрмацию в детальнoм прoфессиoнальнoм фoрмате.

Характеристики температуры и влажнoсти вoздуха измеряются на высoте 2 м в тени вдали oт зданий и деревьев.
Скoрoсть ветра измеряется на высoте 10 м (на урoвне рoста челoвека скoрoсть ветра ниже в 1.5-2 раза). Если метеoстанция нахoдится в гoрoде или в лесу, тo скoрoсть ветра занижена на 2-4 м/с пo сравнению с oткрытым местoм. Скoрoсть ветра над акватoриями крупных рек и oзёр, а также на вершинах хoлмoв на 2-5 м/с выше, чем в oбычных услoвиях.
Атмoсфернoе давление в разных тoчках местнoсти мoжет значительнo oтличаться oт давления на метеoстанции, в зависимoсти oт услoвий рельефа (при пoдъёме на 10 м давление пoнижается примернo на 1 мм рт.ст.).